Flag for U.S.A. Weather past 2 weeks in Sioux Falls, South Dakota, U.S.A.

Now
59 °F

Mostly cloudy.


Feels Like: 58 °F
Forecast: 55 / 71 °F
Wind: 8 mph from Northeast

Location: Foss Field

Current Time: May 24, 2015 at 11:36:55 PM

Latest Report: May 24, 2015 at 10:56 PM


Visibility: 10 mi

Pressure: 29.77 "Hg

Humidity: 96%

Dew point: 58 °F

Location of Sioux FallsLocation

Historic Weather in Sioux Falls — Graph

°F

Sioux Falls temperature yesterday

Maximum temperature yesterday: 66 °F (at 3:56 PM)
Minimum temperature yesterday: 54 °F (at 5:56 AM)
Average temperature yesterday: 60 °F

Past Weeks' High & Low Weather Summary

 TemperatureHumidityPressure
High78 °F (May 16, 5:56 PM)97% (May 14, 10:56 AM)30.48 "Hg (May 14, 10:56 AM)
Low36 °F (May 12, 4:56 AM)24% (May 21, 2:56 PM)29.51 "Hg (May 17, 5:56 AM)
Average55 °F71%30.02 "Hg
* Reported May 9 9:56 PM — May 24 9:56 PM, Sioux Falls, Weather by CustomWeather, © 2015

Note: Actual official high and low records may vary slightly from our data, if they occured in-between our weather recording intervals... More about our weather records

Advertising

Sioux Falls weather history for previous 24 hours

 ConditionsComfort  
Time TempWeatherWind HumidityBarometerVisibility
9:56 PM
Sun, May 24
60 °FMostly cloudy.6 mph93%29.76 "Hg10 mi
8:56 PM60 °FMostly cloudy.7 mph93%29.77 "Hg10 mi
7:56 PM61 °FMostly cloudy.7 mph93%29.78 "Hg10 mi
6:56 PM61 °FLight rain. Mostly cloudy.8 mph93%29.79 "Hg10 mi
5:56 PM62 °FMostly cloudy.8 mph90%29.80 "Hg10 mi
4:56 PM62 °FMostly cloudy.8 mph93%29.81 "Hg10 mi
3:56 PM62 °FLight rain. Low clouds.6 mph93%29.82 "Hg7 mi
2:56 PM62 °FMostly cloudy.10 mph93%29.83 "Hg10 mi
2:01 PM61 °FLight rain. Fog.10 mph97%29.85 "Hg2 mi
12:56 PM61 °FLow clouds.10 mph90%29.88 "Hg10 mi
11:56 AM60 °FLight rain. Fog.13 mph96%29.89 "Hg2 mi
10:56 AM61 °FLow clouds.10 mph90%29.89 "Hg10 mi
9:56 AM61 °FLight rain. Overcast.14 mph90%29.91 "Hg10 mi
9:03 AM60 °FLow clouds.12 mph93%29.95 "Hg10 mi
8:56 AM60 °FOvercast.10 mph93%29.94 "Hg10 mi
7:56 AM60 °FLight rain. Mostly cloudy.8 mph93%29.95 "Hg7 mi
6:56 AM59 °FLow clouds.9 mph96%29.96 "Hg7 mi
5:56 AM59 °FDrizzle. Fog.9 mph93%29.95 "Hg6 mi
4:59 AM58 °FDrizzle. Mostly cloudy.7 mph97%29.98 "Hg8 mi
3:56 AM58 °FLight rain. Fog.7 mph97%30.01 "Hg6 mi
2:56 AM58 °FLight rain. Fog.5 mph97%30.03 "Hg5 mi
1:56 AM59 °FLight rain. Overcast.6 mph93%30.05 "Hg10 mi
12:56 AM59 °FLight rain. Mostly cloudy.5 mph90%30.05 "Hg10 mi
11:56 PM
Sat, May 23
61 °FOvercast.3 mph81%30.06 "Hg10 mi
Weather by CustomWeather, © 2015

See weather overviewHow to use our weather pages